Date String (YYYY-MM-DD hh:mm:ss) UTC,Instrument flags,absolute air pressure of the measurement (hPa),sample flow rate (lpm),inlet stack bypass flow (lpm),air temperature of the measurement (°C),ambient temperature measured by the external sensor (°C),aerosol sample conditioner tube jacket temperature (°C),OPC LED temperature (°C),internal box temperature (°C),relative humidity of the measurement (%),span deviation,mass concentration of particles derived from Lorenz-Mie calculation of OPC scattering (μg/m³),mass concentration of particles derived from Lorenz-Mie calculation of OPC scattering (μg/m³),mass concentration of particles derived from Lorenz-Mie calculation of OPC scattering (μg/m³)
DateTimeUTC,F1_M11,P_M11,Q1_M11,Q2_M11,T1_M11,T2_M11,T3_M11,T4_M11,T5_M11,U1_M11,ZSPAN_M11,X0_M11,X2_M11,X1_M11
2024-05-21 16:00:00,SystemResetWarning,0824.2,5.00,000.00,027.2,026.5,000.0,035.4,029.0,021.3,0000.0,0003.02,0001.96,0001.52
2024-05-21 16:01:00,SystemResetWarning,0824.2,4.99,000.00,027.2,026.5,000.0,035.4,029.0,020.8,0000.0,0003.07,0002.01,0001.53
2024-05-21 16:02:00,SystemResetWarning,0824.1,4.99,000.00,027.2,026.5,000.0,035.4,029.0,021.0,0000.0,0003.09,0002.03,0001.54
2024-05-21 16:03:00,SystemResetWarning,0824.1,5.01,000.00,027.2,026.5,000.0,035.4,029.0,021.5,0000.0,0003.15,0002.06,0001.54
2024-05-21 16:04:00,SystemResetWarning,0824.2,5.01,000.00,027.2,026.5,000.0,035.4,029.0,021.3,0000.0,0003.17,0002.09,0001.55
2024-05-21 16:05:00,SystemResetWarning,0824.3,4.99,000.00,027.2,026.6,000.0,035.4,029.0,022.9,0000.0,0003.17,0002.11,0001.57
2024-05-21 16:06:00,SystemResetWarning,0824.3,5.00,000.00,027.2,026.6,000.0,035.5,029.0,021.9,0000.0,0003.04,0002.09,0001.58
2024-05-21 16:07:00,SystemResetWarning,0824.3,5.00,000.00,027.3,026.6,000.0,035.5,029.0,021.0,0000.0,0003.05,0002.13,0001.59
2024-05-21 16:08:00,SystemResetWarning,0824.3,5.01,000.00,027.3,026.6,000.0,035.5,029.0,020.5,0000.0,0003.33,0002.18,0001.63
2024-05-21 16:09:00,SystemResetWarning,0824.3,5.01,000.00,027.3,026.6,000.0,035.5,029.1,020.3,0000.0,0004.48,0002.20,0001.66
2024-05-21 16:10:00,SystemResetWarning,0824.3,4.99,000.00,027.3,026.6,000.0,035.5,029.1,020.7,0000.0,0005.67,0002.23,0001.69
2024-05-21 16:11:00,SystemResetWarning,0824.3,4.99,000.00,027.3,026.6,000.0,035.5,029.1,020.5,0000.0,0005.95,0002.24,0001.70
2024-05-21 16:12:00,SystemResetWarning,0824.3,5.02,000.00,027.3,026.6,000.0,035.5,029.1,020.2,0000.0,0006.14,0002.25,0001.72
2024-05-21 16:13:00,SystemResetWarning,0824.4,5.01,000.00,027.3,026.6,000.0,035.5,029.1,021.1,0000.0,0006.97,0002.25,0001.72
2024-05-21 16:14:00,SystemResetWarning,0824.3,4.99,000.00,027.3,026.6,000.0,035.5,029.1,020.9,0000.0,0007.37,0002.24,0001.71
2024-05-21 16:15:00,SystemResetWarning,0824.3,4.99,000.00,027.3,026.7,000.0,035.5,029.1,022.6,0000.0,0007.35,0002.23,0001.71
2024-05-21 16:16:00,SystemResetWarning,0824.4,5.01,000.00,027.3,026.7,000.0,035.6,029.2,021.4,0000.0,0007.31,0002.19,0001.71
2024-05-21 16:17:00,SystemResetWarning,0824.4,5.01,000.00,027.4,026.7,000.0,035.6,029.2,021.2,0000.0,0007.41,0002.27,0001.74
2024-05-21 16:18:00,SystemResetWarning,0824.3,4.99,000.00,027.4,026.7,000.0,035.6,029.2,021.8,0000.0,0007.48,0002.31,0001.78
2024-05-21 16:19:00,SystemResetWarning,0824.3,4.99,000.00,027.4,026.7,000.0,035.6,029.2,021.6,0000.0,0007.38,0002.26,0001.79
2024-05-21 16:20:00,SystemResetWarning,0824.3,5.00,000.00,027.4,026.7,000.0,035.6,029.2,021.9,0000.0,0006.83,0002.28,0001.79
2024-05-21 16:21:00,SystemResetWarning,0824.2,5.00,000.00,027.4,026.7,000.0,035.6,029.2,021.5,0000.0,0005.12,0002.32,0001.79
2024-05-21 16:22:00,SystemResetWarning,0824.3,5.00,000.00,027.4,026.7,000.0,035.6,029.2,020.5,0000.0,0005.02,0002.33,0001.80
2024-05-21 16:23:00,SystemResetWarning,0824.3,5.00,000.00,027.4,026.7,000.0,035.7,029.2,020.5,0000.0,0005.50,0002.28,0001.80
2024-05-21 16:24:00,SystemResetWarning,0824.3,5.00,000.00,027.4,026.7,000.0,035.7,029.2,020.0,0000.0,0005.38,0002.28,0001.80
2024-05-21 16:25:00,SystemResetWarning,0824.3,5.00,000.00,027.4,026.7,000.0,035.7,029.2,020.2,0000.0,0005.45,0002.27,0001.80
2024-05-21 16:26:00,SystemResetWarning,0824.3,5.00,000.00,027.4,026.7,000.0,035.7,029.2,021.0,0000.0,0005.69,0002.29,0001.81
2024-05-21 16:27:00,SystemResetWarning,0824.3,4.99,000.00,027.4,026.8,000.0,035.7,029.2,022.3,0000.0,0005.76,0002.32,0001.82
2024-05-21 16:28:00,SystemResetWarning,0824.3,5.00,000.00,027.5,026.8,000.0,035.7,029.2,022.2,0000.0,0006.81,0002.33,0001.82
2024-05-21 16:29:00,SystemResetWarning,0824.2,5.00,000.00,027.5,026.8,000.0,035.7,029.3,020.9,0000.0,0007.27,0002.31,0001.80
2024-05-21 16:30:00,SystemResetWarning,0824.2,5.01,000.00,027.5,026.8,000.0,035.7,029.3,021.2,0000.0,0007.32,0002.33,0001.81
2024-05-21 16:31:00,SystemResetWarning,0824.1,5.00,000.00,027.5,026.8,000.0,035.7,029.3,021.2,0000.0,0007.36,0002.39,0001.83
2024-05-21 16:32:00,SystemResetWarning,0824.2,4.99,000.00,027.5,026.8,000.0,035.7,029.3,021.0,0000.0,0007.37,0002.41,0001.85
2024-05-21 16:33:00,SystemResetWarning,0824.2,4.99,000.00,027.5,026.8,000.0,035.7,029.3,020.9,0000.0,0007.64,0002.40,0001.85
2024-05-21 16:34:00,SystemResetWarning,0824.1,5.00,000.00,027.5,026.9,000.0,035.7,029.3,020.3,0000.0,0007.40,0002.42,0001.86
2024-05-21 16:35:00,SystemResetWarning,0824.1,5.02,000.00,027.5,026.9,000.0,035.8,029.3,020.0,0000.0,0006.57,0002.44,0001.87
2024-05-21 16:36:00,SystemResetWarning,0824.1,4.99,000.00,027.6,026.9,000.0,035.8,029.3,019.7,0000.0,0006.20,0002.47,0001.90
2024-05-21 16:37:00,SystemResetWarning,0824.2,4.99,000.00,027.6,026.9,000.0,035.8,029.3,019.5,0000.0,0005.75,0002.52,0001.92
2024-05-21 16:38:00,SystemResetWarning,0824.2,5.00,000.00,027.6,026.9,000.0,035.8,029.3,019.8,0000.0,0005.93,0002.57,0001.94
2024-05-21 16:39:00,SystemResetWarning,0824.1,5.01,000.00,027.6,026.9,000.0,035.8,029.4,020.2,0000.0,0005.15,0002.56,0001.95
2024-05-21 16:40:00,SystemResetWarning,0824.2,5.00,000.00,027.6,026.9,000.0,035.8,029.4,020.2,0000.0,0004.33,0002.54,0001.95
2024-05-21 16:41:00,SystemResetWarning,0824.1,4.99,000.00,027.6,027.0,000.0,035.8,029.4,020.1,0000.0,0004.25,0002.50,0001.92
2024-05-21 16:42:00,SystemResetWarning,0824.1,4.99,000.00,027.6,027.0,000.0,035.8,029.4,019.7,0000.0,0004.11,0002.43,0001.90
2024-05-21 16:43:00,SystemResetWarning,0824.1,5.01,000.00,027.6,027.0,000.0,035.9,029.4,019.8,0000.0,0004.02,0002.39,0001.89
2024-05-21 16:44:00,SystemResetWarning,0824.1,5.01,000.00,027.7,027.0,000.0,035.9,029.4,020.2,0000.0,0003.54,0002.36,0001.89
2024-05-21 16:45:00,SystemResetWarning,0824.2,5.00,000.00,027.7,027.0,000.0,035.9,029.4,019.8,0000.0,0003.35,0002.33,0001.88
2024-05-21 16:46:00,SystemResetWarning,0824.2,4.99,000.00,027.7,027.0,000.0,035.9,029.4,019.3,0000.0,0003.65,0002.33,0001.87
2024-05-21 16:47:00,SystemResetWarning,0824.2,5.00,000.00,027.7,027.0,000.0,035.9,029.5,019.7,0000.0,0004.02,0002.31,0001.87
2024-05-21 16:48:00,SystemResetWarning,0824.2,5.00,000.00,027.7,027.1,000.0,035.9,029.5,020.2,0000.0,0003.94,0002.27,0001.86
2024-05-21 16:49:00,SystemResetWarning,0824.3,4.99,000.00,027.7,027.1,000.0,035.9,029.5,019.4,0000.0,0003.84,0002.24,0001.84
2024-05-21 16:50:00,SystemResetWarning,0824.3,5.02,000.00,027.7,027.1,000.0,036.0,029.5,019.5,0000.0,0003.86,0002.27,0001.83
2024-05-21 16:51:00,SystemResetWarning,0824.3,5.01,000.00,027.7,027.1,000.0,036.0,029.5,019.5,0000.0,0003.94,0002.27,0001.83
2024-05-21 16:52:00,SystemResetWarning,0824.3,5.01,000.00,027.8,027.1,000.0,036.0,029.5,019.1,0000.0,0004.05,0002.30,0001.84
2024-05-21 16:53:00,SystemResetWarning,0824.2,4.99,000.00,027.8,027.1,000.0,036.0,029.6,019.4,0000.0,0004.17,0002.35,0001.86
2024-05-21 16:54:00,SystemResetWarning,0824.1,4.99,000.00,027.8,027.1,000.0,036.0,029.6,019.9,0000.0,0004.33,0002.38,0001.87
2024-05-21 16:55:00,SystemResetWarning,0824.1,5.00,000.00,027.8,027.2,000.0,036.0,029.6,019.9,0000.0,0004.44,0002.37,0001.87
2024-05-21 16:56:00,SystemResetWarning,0824.1,5.01,000.00,027.8,027.2,000.0,036.0,029.6,019.3,0000.0,0004.66,0002.40,0001.87
2024-05-21 16:57:00,SystemResetWarning,0824.1,5.01,000.00,027.8,027.2,000.0,036.0,029.6,019.5,0000.0,0004.58,0002.43,0001.87
2024-05-21 16:58:00,SystemResetWarning,0824.1,4.99,000.00,027.8,027.2,000.0,036.0,029.6,019.7,0000.0,0005.35,0002.45,0001.86
2024-05-21 16:59:00,SystemResetWarning,0824.1,4.99,000.00,027.8,027.2,000.0,036.1,029.6,019.4,0000.0,0005.43,0002.44,0001.86
